This is the latest recevied weather packets stored in our database for station/object OH1KK. If no packets are shown the sender has not sent any weather packets the latest 10 day(s).
| Time | Temp. | Humidity | Pressure | Rain* | Wind** | Luminosity | Snow |
|---|---|---|---|---|---|---|---|
| 1777745059 | 12.78° C | 54% | 996.7 hPa | 0 mm | - | - | - |
| 1777744144 | 12.78° C | 53% | 996.5 hPa | 0 mm | - | - | - |
| 1777743290 | 13.33° C | 52% | 996.4 hPa | 0 mm | - | - | - |
| 1777742375 | 13.33° C | 50% | 996.5 hPa | 0 mm | - | - | - |
| 1777741463 | 13.89° C | 50% | 996.7 hPa | 0 mm | - | - | - |
| 1777740546 | 13.89° C | 49% | 996.8 hPa | 0 mm | - | - | - |
| 1777739692 | 13.89° C | 49% | 996.7 hPa | 0 mm | - | - | - |
| 1777737862 | 14.44° C | 47% | 997 hPa | 0 mm | - | - | - |
| 1777736946 | 14.44° C | 46% | 997 hPa | 0 mm | - | - | - |
| 1777736092 | 14.44° C | 46% | 996.9 hPa | 0 mm | - | - | - |
| 1777735177 | 15° C | 45% | 996.9 hPa | 0 mm | - | - | - |
| 1777734263 | 15° C | 45% | 997.1 hPa | 0 mm | - | - | - |
| 1777733346 | 15° C | 43% | 997.2 hPa | 0 mm | - | - | - |
| 1777732492 | 15° C | 44% | 997.3 hPa | 0 mm | - | - | - |
| 1777731577 | 15° C | 43% | 997.2 hPa | 0 mm | - | - | - |
| 1777730662 | 15° C | 43% | 997.3 hPa | 0 mm | - | - | - |
| 1777729746 | 15° C | 45% | 997.4 hPa | 0 mm | - | - | - |
| 1777728892 | 15.56° C | 43% | 997.4 hPa | 0 mm | - | - | - |
| 1777727977 | 15.56° C | 43% | 997.4 hPa | 0 mm | - | - | - |
| 1777727062 | 15.56° C | 42% | 997.1 hPa | 0 mm | - | - | - |
| 1777726149 | 16.11° C | 39% | 997 hPa | 0 mm | - | - | - |
| 1777725292 | 16.11° C | 38% | 997.2 hPa | 0 mm | - | - | - |
| 1777724377 | 16.67° C | 38% | 997.3 hPa | 0 mm | - | - | - |
| 1777723462 | 16.67° C | 43% | 997 hPa | 0 mm | - | - | - |
| 1777722548 | 16.11° C | 43% | 997.2 hPa | 0 mm | - | - | - |
* Rain latest hour (hover to see other rain measurements)
** Current wind speed in m/s (hover to see current wind gust speed)